timestamp,wind_dir_avg,wind_spd_avg,wind_spd_max_dir,wind_spd_gust,battery_voltage,lat,long
2021-06-13 00:04:00+00:00,220.0,6.6,221.0,7.76,13.13,47.59359,-54.27349
2021-06-13 00:14:01+00:00,221.0,7.14,219.0,8.35,12.65,47.59359,-54.27349
2021-06-13 00:24:01+00:00,220.0,6.0,224.0,6.85,12.65,47.59359,-54.27349
2021-06-13 00:34:01+00:00,218.0,7.1,227.0,8.53,12.65,47.59359,-54.27349
2021-06-13 00:44:01+00:00,211.0,6.39,211.0,7.25,12.65,47.59359,-54.27349
2021-06-13 00:54:01+00:00,209.0,5.75,208.0,6.35,12.65,47.59359,-54.27349
2021-06-13 01:04:01+00:00,217.0,4.74,215.0,5.13,12.65,47.59359,-54.27349
2021-06-13 01:14:00+00:00,220.0,4.91,223.0,5.54,12.57,47.59359,-54.27349
2021-06-13 01:24:00+00:00,230.0,5.14,229.0,5.73,12.57,47.59359,-54.27349
2021-06-13 01:34:00+00:00,229.0,4.94,231.0,5.8,12.57,47.59359,-54.27349
2021-06-13 01:44:00+00:00,224.0,4.66,220.0,5.38,12.57,47.59359,-54.27349
2021-06-13 01:54:00+00:00,215.0,4.73,206.0,5.48,12.57,47.59359,-54.27349
2021-06-13 02:04:00+00:00,203.0,4.68,205.0,5.2,12.57,47.59359,-54.27349
2021-06-13 02:14:01+00:00,201.0,4.5,201.0,4.8,12.57,47.59359,-54.27349
2021-06-13 02:24:01+00:00,210.0,3.69,210.0,3.99,12.57,47.59359,-54.27349
2021-06-13 02:34:01+00:00,198.0,2.97,192.0,3.42,12.57,47.59359,-54.27349
2021-06-13 02:44:01+00:00,221.0,2.67,215.0,3.23,12.57,47.59359,-54.27349
2021-06-13 02:54:01+00:00,222.0,2.95,220.0,3.56,12.57,47.59359,-54.27349
2021-06-13 03:04:01+00:00,211.0,2.1,209.0,2.6,12.57,47.59359,-54.27349
2021-06-13 03:14:00+00:00,48.0,0.33,40.0,0.61,12.57,47.59359,-54.27349
2021-06-13 03:24:00+00:00,62.0,0.36,82.0,0.51,12.57,47.59359,-54.27349
2021-06-13 03:34:00+00:00,202.0,1.85,202.0,1.98,12.57,47.59359,-54.27349
2021-06-13 03:44:00+00:00,153.0,1.65,155.0,1.77,12.57,47.59359,-54.27349
2021-06-13 03:54:00+00:00,128.0,2.43,128.0,2.73,12.57,47.59359,-54.27349
2021-06-13 04:04:00+00:00,139.0,3.01,141.0,3.26,12.57,47.59359,-54.27349
2021-06-13 04:14:00+00:00,96.0,0.83,108.0,1.33,12.49,47.59359,-54.27349
2021-06-13 04:24:00+00:00,53.0,1.73,57.0,2.24,12.49,47.59359,-54.27349
2021-06-13 04:34:00+00:00,33.0,1.14,31.0,1.29,12.49,47.59359,-54.27349
2021-06-13 04:44:00+00:00,68.0,1.27,72.0,1.57,12.49,47.59359,-54.27349
2021-06-13 04:54:00+00:00,54.0,1.47,48.0,1.76,12.49,47.59359,-54.27349
2021-06-13 05:04:00+00:00,89.0,1.78,83.0,2.31,12.49,47.59359,-54.27349
2021-06-13 05:14:00+00:00,90.0,1.18,81.0,1.42,12.49,47.59359,-54.27349
2021-06-13 05:24:00+00:00,90.0,0.82,97.0,2.07,12.49,47.59359,-54.27349
2021-06-13 05:34:00+00:00,116.0,2.06,127.0,2.4,12.49,47.59359,-54.27349
2021-06-13 05:44:00+00:00,119.0,2.24,117.0,2.67,12.49,47.59359,-54.27349
2021-06-13 05:54:00+00:00,108.0,1.39,121.0,2.24,12.49,47.59359,-54.27349
2021-06-13 06:04:00+00:00,85.0,1.67,86.0,2.19,12.49,47.59359,-54.27349
2021-06-13 06:14:01+00:00,71.0,2.25,73.0,2.49,12.49,47.59359,-54.27349
2021-06-13 06:24:01+00:00,69.0,2.48,63.0,2.76,12.49,47.59359,-54.27349
2021-06-13 06:34:01+00:00,49.0,3.07,47.0,3.49,12.49,47.59359,-54.27349
2021-06-13 06:44:01+00:00,59.0,3.27,56.0,3.64,12.49,47.59359,-54.27349
2021-06-13 06:54:01+00:00,64.0,2.12,56.0,3.12,12.49,47.59359,-54.27349
2021-06-13 07:04:01+00:00,78.0,2.82,91.0,3.46,12.49,47.59359,-54.27349
2021-06-13 07:14:01+00:00,71.0,2.77,72.0,3.69,12.41,47.59359,-54.27349
2021-06-13 07:24:01+00:00,83.0,2.75,95.0,3.61,12.41,47.59359,-54.27349
2021-06-13 07:34:01+00:00,70.0,2.64,75.0,3.08,12.41,47.59359,-54.27349
2021-06-13 07:44:01+00:00,77.0,1.77,86.0,2.2,12.41,47.59359,-54.27349
2021-06-13 07:54:01+00:00,86.0,2.39,68.0,2.95,12.41,47.59359,-54.27349
2021-06-13 08:04:01+00:00,58.0,1.93,57.0,2.63,12.41,47.59359,-54.27349
2021-06-13 08:14:00+00:00,43.0,2.15,46.0,2.43,12.41,47.59359,-54.27349
2021-06-13 08:24:00+00:00,45.0,2.51,45.0,2.72,12.41,47.59359,-54.27349
2021-06-13 08:34:00+00:00,33.0,2.66,37.0,2.88,12.41,47.59359,-54.27349
2021-06-13 08:44:00+00:00,57.0,1.17,62.0,1.74,12.41,47.59359,-54.27349
2021-06-13 08:54:00+00:00,69.0,2.55,68.0,3.07,12.41,47.59359,-54.27349
2021-06-13 09:04:00+00:00,87.0,2.19,73.0,3.02,12.41,47.59359,-54.27349
2021-06-13 09:14:01+00:00,112.0,2.0,111.0,2.71,12.73,47.59359,-54.27349
2021-06-13 09:24:01+00:00,91.0,1.23,66.0,2.15,12.73,47.59359,-54.27349
2021-06-13 09:34:01+00:00,108.0,1.82,119.0,2.61,12.73,47.59359,-54.27349
2021-06-13 09:44:01+00:00,100.0,2.34,137.0,3.58,12.73,47.59359,-54.27349
2021-06-13 09:54:01+00:00,126.0,2.74,126.0,3.42,12.73,47.59359,-54.27349
2021-06-13 10:04:01+00:00,121.0,2.34,121.0,2.52,12.73,47.59359,-54.27349
2021-06-13 10:14:01+00:00,126.0,1.29,130.0,1.71,13.68,47.59359,-54.27349
2021-06-13 10:24:01+00:00,102.0,0.42,101.0,0.6,13.68,47.59359,-54.27349
2021-06-13 10:34:01+00:00,74.0,1.52,74.0,2.34,13.68,47.59359,-54.27349
2021-06-13 10:44:01+00:00,36.0,0.85,26.0,1.09,13.68,47.59359,-54.27349
2021-06-13 10:54:01+00:00,64.0,1.69,56.0,1.85,13.68,47.59359,-54.27349
2021-06-13 11:04:01+00:00,43.0,1.48,40.0,1.69,13.68,47.59359,-54.27349
2021-06-13 11:14:00+00:00,50.0,1.72,51.0,2.0,13.68,47.59359,-54.27349
2021-06-13 11:24:00+00:00,34.0,1.75,32.0,2.12,13.68,47.59359,-54.27349
2021-06-13 11:34:00+00:00,17.0,2.22,16.0,2.46,13.68,47.59359,-54.27349
2021-06-13 11:44:00+00:00,0.0,2.35,355.0,2.7,13.68,47.59359,-54.27349
2021-06-13 11:54:00+00:00,12.0,2.23,359.0,2.57,13.68,47.59359,-54.27349
2021-06-13 12:04:00+00:00,18.0,2.24,19.0,2.34,13.68,47.59359,-54.27349
2021-06-13 12:14:01+00:00,14.0,2.04,14.0,2.27,13.76,47.59359,-54.27349
2021-06-13 12:24:01+00:00,17.0,2.21,15.0,2.44,13.76,47.59359,-54.27349
2021-06-13 12:34:01+00:00,352.0,1.86,352.0,2.03,13.76,47.59359,-54.27349
2021-06-13 12:44:01+00:00,3.0,1.63,3.0,1.81,13.76,47.59359,-54.27349
2021-06-13 12:54:01+00:00,351.0,1.49,354.0,1.72,13.76,47.59359,-54.27349
2021-06-13 13:04:01+00:00,353.0,1.07,354.0,1.35,13.76,47.59359,-54.27349
2021-06-13 13:14:01+00:00,29.0,1.11,20.0,1.44,14.0,47.59359,-54.27349
2021-06-13 13:24:01+00:00,69.0,0.8,57.0,1.0,14.0,47.59359,-54.27349
2021-06-13 13:34:01+00:00,58.0,0.74,50.0,0.97,14.0,47.59359,-54.27349
2021-06-13 13:44:01+00:00,135.0,0.43,168.0,0.92,14.0,47.59359,-54.27349
2021-06-13 13:54:01+00:00,173.0,0.92,176.0,1.17,14.0,47.59359,-54.27349
2021-06-13 14:04:01+00:00,216.0,1.85,209.0,2.38,14.0,47.59359,-54.27349
2021-06-13 14:14:01+00:00,238.0,4.71,239.0,5.08,14.24,47.59359,-54.27349
2021-06-13 14:24:01+00:00,215.0,4.33,215.0,4.69,14.24,47.59359,-54.27349
2021-06-13 14:34:01+00:00,210.0,4.74,208.0,5.31,14.24,47.59359,-54.27349
2021-06-13 14:44:01+00:00,209.0,5.33,209.0,5.89,14.24,47.59359,-54.27349
2021-06-13 14:54:01+00:00,213.0,6.29,211.0,7.1,14.24,47.59359,-54.27349
2021-06-13 15:04:01+00:00,208.0,6.82,213.0,7.2,14.24,47.59359,-54.27349
2021-06-13 15:14:01+00:00,209.0,6.62,211.0,7.33,14.32,47.59359,-54.27349
2021-06-13 15:24:01+00:00,206.0,7.08,210.0,7.78,14.32,47.59359,-54.27349
2021-06-13 15:34:01+00:00,198.0,7.15,199.0,7.81,14.32,47.59359,-54.27349
2021-06-13 15:44:01+00:00,207.0,6.65,206.0,7.58,14.32,47.59359,-54.27349
2021-06-13 15:54:01+00:00,213.0,6.28,215.0,6.79,14.32,47.59359,-54.27349
2021-06-13 16:04:01+00:00,223.0,7.15,220.0,8.01,14.32,47.59359,-54.27349
2021-06-13 16:14:01+00:00,213.0,6.99,212.0,7.69,13.76,47.59359,-54.27349
2021-06-13 16:24:01+00:00,209.0,7.75,207.0,8.74,13.76,47.59359,-54.27349
2021-06-13 16:34:01+00:00,212.0,8.33,208.0,9.07,13.76,47.59359,-54.27349
2021-06-13 16:44:01+00:00,209.0,9.22,211.0,10.12,13.76,47.59359,-54.27349
2021-06-13 16:54:01+00:00,210.0,9.55,212.0,10.98,13.76,47.59359,-54.27349
2021-06-13 17:04:01+00:00,218.0,9.18,216.0,10.53,13.76,47.59359,-54.27349
2021-06-13 17:14:01+00:00,212.0,8.34,210.0,10.22,13.76,47.59359,-54.27349
2021-06-13 17:24:01+00:00,216.0,8.46,212.0,9.97,13.76,47.59359,-54.27349
2021-06-13 17:34:01+00:00,228.0,9.45,228.0,11.53,13.76,47.59359,-54.27349
2021-06-13 17:44:01+00:00,221.0,9.1,225.0,10.65,13.76,47.59359,-54.27349
2021-06-13 17:54:01+00:00,209.0,6.52,202.0,7.79,13.76,47.59359,-54.27349
2021-06-13 18:04:01+00:00,213.0,8.38,213.0,9.28,13.76,47.59359,-54.27349
2021-06-13 18:14:01+00:00,217.0,8.77,224.0,9.94,13.84,47.59359,-54.27349
2021-06-13 18:24:01+00:00,211.0,8.45,210.0,9.63,13.84,47.59359,-54.27349
2021-06-13 18:34:01+00:00,207.0,10.49,211.0,12.12,13.84,47.59359,-54.27349
2021-06-13 18:44:01+00:00,205.0,10.62,206.0,11.78,13.84,47.59359,-54.27349
2021-06-13 18:54:01+00:00,210.0,10.5,212.0,11.29,13.84,47.59359,-54.27349
2021-06-13 19:04:01+00:00,213.0,10.31,213.0,11.52,13.84,47.59359,-54.27349
2021-06-13 19:14:01+00:00,207.0,10.75,205.0,12.01,13.84,47.59359,-54.27349
2021-06-13 19:24:01+00:00,204.0,10.88,207.0,11.83,13.84,47.59359,-54.27349
2021-06-13 19:34:01+00:00,206.0,9.87,205.0,10.96,13.84,47.59359,-54.27349
2021-06-13 19:44:01+00:00,207.0,10.37,208.0,11.38,13.84,47.59359,-54.27349
2021-06-13 19:54:01+00:00,209.0,9.85,210.0,10.86,13.84,47.59359,-54.27349
2021-06-13 20:04:01+00:00,209.0,9.44,210.0,10.51,13.84,47.59359,-54.27349
2021-06-13 20:14:01+00:00,218.0,6.43,232.0,7.69,13.68,47.59359,-54.27349
2021-06-13 20:24:01+00:00,251.0,5.13,245.0,5.73,13.68,47.59359,-54.27349
2021-06-13 20:34:01+00:00,228.0,7.32,227.0,8.43,13.68,47.59359,-54.27349
2021-06-13 20:44:01+00:00,226.0,7.39,226.0,8.78,13.68,47.59359,-54.27349
2021-06-13 20:54:01+00:00,210.0,7.58,211.0,8.54,13.68,47.59359,-54.27349
2021-06-13 21:04:01+00:00,209.0,8.85,210.0,9.68,13.68,47.59359,-54.27349
2021-06-13 21:14:01+00:00,212.0,10.04,212.0,11.59,13.84,47.59359,-54.27349
2021-06-13 21:24:01+00:00,213.0,9.93,209.0,13.12,13.84,47.59359,-54.27349
2021-06-13 21:34:01+00:00,211.0,10.68,211.0,12.04,13.84,47.59359,-54.27349
2021-06-13 21:44:01+00:00,212.0,10.57,212.0,12.29,13.84,47.59359,-54.27349
2021-06-13 21:54:01+00:00,227.0,8.39,239.0,10.78,13.84,47.59359,-54.27349
2021-06-13 22:04:01+00:00,227.0,8.8,228.0,10.62,13.84,47.59359,-54.27349
2021-06-13 22:14:01+00:00,230.0,8.24,233.0,10.51,13.68,47.59359,-54.27349
2021-06-13 22:24:01+00:00,220.0,6.66,218.0,8.0,13.68,47.59359,-54.27349
2021-06-13 22:34:01+00:00,216.0,6.68,219.0,7.6,13.68,47.59359,-54.27349
2021-06-13 22:44:01+00:00,223.0,5.85,226.0,7.27,13.68,47.59359,-54.27349
2021-06-13 22:54:01+00:00,250.0,4.86,252.0,5.52,13.68,47.59359,-54.27349
2021-06-13 23:04:01+00:00,253.0,7.31,254.0,8.24,13.68,47.59359,-54.27349
2021-06-13 23:14:01+00:00,254.0,5.87,249.0,6.4,13.21,47.59359,-54.27349
2021-06-13 23:24:01+00:00,247.0,6.82,244.0,7.53,13.21,47.59359,-54.27349
2021-06-13 23:34:01+00:00,237.0,7.37,236.0,8.01,13.21,47.59359,-54.27349
2021-06-13 23:44:01+00:00,235.0,5.88,241.0,6.81,13.21,47.59359,-54.27349
2021-06-13 23:54:01+00:00,251.0,6.11,253.0,6.82,13.21,47.59359,-54.27349
